Weather History for KISN - November, 2012

Change the Weather History Date:

Thursday, November 8, 2012

  Actual Average Record
Temperature  
Mean Temperature 35 °F 31 °F  
Max Temperature 42 °F 43 °F 70 °F (1999)
Min Temperature 27 °F 20 °F -14 °F (1895)
Degree Days  
Heating Degree Days 30 34  
Month to date heating degree days 227 253  
Since 1 July heating degree days 1207 1280  
Cooling Degree Days 0 0  
Month to date cooling degree days 0 0  
Year to date cooling degree days 532 456  
Moisture  
Dew Point 29 °F    
Average Humidity 85    
Maximum Humidity 100    
Minimum Humidity 70    
Precipitation  
Precipitation 0.11 in 0.03 in 0.48 in (1935)
Month to date precipitation 0.53 0.21  
Year to date precipitation 11.67 13.31  
Snow  
Snow 0.00 in 0.20 in 2.00 in (2012)
Month to date snowfall 2.0 1.3  
Snow Depth 0.00 in    
Sea Level Pressure  
Sea Level Pressure 30.10 in    
Wind  
Wind Speed 13 mph (NNE)    
Max Wind Speed 21 mph    
Max Gust Speed 24 mph    
Visibility 8 miles    
Events Snow    
T = Trace of Precipitation, MM = Missing Value Source: NWS Daily Summary

Daily Weather History Graph

Daily Weather History Graph

Search for Another Location

Airport or City:

Trip Planner

Search our weather history database for the weather conditions in past years. The results will help you decide how hot, cold, wet, or windy it might be!

Date:

Astronomy

Nov. 08, 2012 Rise Set
Actual Time 7:51 AM CST 5:24 PM CST
Civil Twilight 7:18 AM CST 5:57 PM CST
Nautical Twilight 6:40 AM CST 6:35 PM CST
Astronomical Twilight 6:04 AM CST 7:11 PM CST
Moon 1:22 AM CST (11/8) 2:30 PM CST (11/8)
Length of Visible Light 10h 39m
Length of Day
9h 32m
Waning Crescent, 32% of the Moon is Illuminated
Nov 8
Waning Crescent
Nov 13
New
Nov 20
First Quarter
Nov 28
Full
Dec 6
Last Quarter

Hourly Weather History & Observations

Time (CST) Temp. Windchill Dew Point Humidity Pressure Visibility Wind Dir Wind Speed Gust Speed Precip Events Conditions
12:52 AM 39.9 °F 33.9 °F 35.1 °F 83% 29.88 in 10.0 mi WNW 9.2 mph - N/A   Overcast
1:08 AM 37.4 °F 30.3 °F 33.8 °F 87% 29.87 in 10.0 mi NNW 10.4 mph - N/A   Overcast
1:31 AM 37.4 °F 29.8 °F 33.8 °F 87% 29.89 in 10.0 mi NW 11.5 mph 19.6 mph N/A   Overcast
1:52 AM 36.0 °F 26.3 °F 33.1 °F 89% 29.93 in 10.0 mi NW 16.1 mph - N/A   Overcast
2:28 AM 37.4 °F 28.5 °F 33.8 °F 87% 29.92 in 10.0 mi NW 15.0 mph 19.6 mph N/A   Mostly Cloudy
2:52 AM 37.0 °F 28.5 °F 33.1 °F 86% 29.96 in 10.0 mi NW 13.8 mph - N/A   Overcast
3:12 AM 35.6 °F 28.6 °F 33.8 °F 93% 29.94 in 10.0 mi WNW 9.2 mph - N/A   Scattered Clouds
3:40 AM 37.4 °F 28.9 °F 33.8 °F 87% 29.94 in 10.0 mi NW 13.8 mph - N/A   Overcast
3:52 AM 37.9 °F 28.9 °F 33.1 °F 83% 29.99 in 10.0 mi NW 16.1 mph - N/A   Overcast
4:52 AM 37.0 °F 27.0 °F 32.0 °F 82% 30.02 in 10.0 mi NNW 18.4 mph - N/A   Overcast
5:52 AM 36.0 °F 26.7 °F 30.0 °F 79% 30.05 in 10.0 mi NNW 15.0 mph 24.2 mph N/A   Overcast
6:52 AM 35.1 °F 29.3 °F 30.0 °F 82% 30.08 in 10.0 mi NNW 6.9 mph - N/A   Overcast
7:52 AM 34.0 °F 24.6 °F 28.9 °F 82% 30.11 in 10.0 mi North 13.8 mph - N/A   Overcast
8:22 AM 33.8 °F 25.8 °F 30.2 °F 87% 30.08 in 10.0 mi North 10.4 mph - N/A   Overcast
8:52 AM 33.1 °F 23.4 °F 30.0 °F 89% 30.13 in 10.0 mi NNW 13.8 mph - N/A   Overcast
9:52 AM 34.0 °F 26.0 °F 30.0 °F 85% 30.16 in 10.0 mi North 10.4 mph - N/A   Overcast
10:52 AM 34.0 °F 24.2 °F 28.0 °F 79% 30.16 in 10.0 mi NE 15.0 mph 19.6 mph N/A   Overcast
11:52 AM 35.1 °F 26.9 °F 28.0 °F 76% 30.18 in 10.0 mi NNE 11.5 mph - N/A   Overcast
12:52 PM 35.1 °F 26.9 °F 26.1 °F 70% 30.17 in 10.0 mi NE 11.5 mph - N/A   Overcast
1:52 PM 34.0 °F 25.5 °F 28.0 °F 79% 30.18 in 10.0 mi ENE 11.5 mph - N/A   Overcast
2:52 PM 34.0 °F 27.2 °F 27.0 °F 75% 30.17 in 10.0 mi East 8.1 mph - N/A   Overcast
3:52 PM 34.0 °F 27.2 °F 27.0 °F 75% 30.17 in 10.0 mi NE 8.1 mph - N/A   Overcast
4:52 PM 34.0 °F 25.5 °F 27.0 °F 75% 30.16 in 10.0 mi ENE 11.5 mph - N/A   Overcast
5:52 PM 33.1 °F 24.4 °F 27.0 °F 78% 30.16 in 10.0 mi ENE 11.5 mph - N/A   Overcast
6:52 PM 32.0 °F 22.5 °F 27.0 °F 82% 30.17 in 10.0 mi ENE 12.7 mph - N/A   Overcast
7:52 PM 32.0 °F 21.2 °F 27.0 °F 82% 30.18 in 10.0 mi ENE 16.1 mph - N/A   Overcast
8:21 PM 30.2 °F 19.8 °F 26.6 °F 86% 30.12 in 2.0 mi ENE 13.8 mph 21.9 mph 0.00 in Snow Light Snow
8:32 PM 30.2 °F 19.8 °F 28.4 °F 93% 30.12 in 1.8 mi ENE 13.8 mph - 0.00 in Snow Light Snow
8:52 PM 28.9 °F 19.2 °F 28.0 °F 96% 30.20 in 1.0 mi ENE 11.5 mph - 0.02 in Snow Light Snow
8:55 PM 28.4 °F 18.0 °F 28.4 °F 100% 30.13 in 1.0 mi ENE 12.7 mph - 0.00 in Snow Light Snow
9:52 PM 28.9 °F 19.2 °F 28.0 °F 96% 30.20 in 1.8 mi NE 11.5 mph - 0.04 in Snow Light Snow
9:58 PM 28.4 °F 19.1 °F 28.4 °F 100% 30.13 in 2.0 mi NE 10.4 mph - 0.00 in Snow Light Snow
10:04 PM 28.4 °F 18.5 °F 28.4 °F 100% 30.13 in 1.8 mi NE 11.5 mph - 0.00 in Snow Light Snow
10:52 PM 28.0 °F 17.0 °F 27.0 °F 96% 30.20 in 1.0 mi NE 13.8 mph - 0.03 in Snow Light Snow
11:12 PM 28.4 °F 17.0 °F 26.6 °F 93% 30.12 in 1.8 mi ENE 15.0 mph 20.7 mph 0.01 in Snow Light Snow
11:39 PM 26.6 °F 15.7 °F 24.8 °F 93% 30.12 in 2.5 mi ENE 12.7 mph - 0.02 in Snow Light Snow
11:45 PM 26.6 °F 16.2 °F 24.8 °F 93% 30.12 in 3.0 mi ENE 11.5 mph - 0.02 in Snow Light Snow
11:52 PM 27.0 °F 15.6 °F 25.0 °F 92% 30.20 in 4.0 mi ENE 13.8 mph - 0.02 in Snow Light Snow